GW6804 Weather Reports


time (UTC)temp
C
wind
direction
speed
KPH
gust
KPH
rain 1hr
cm
rain 24hr
cm
rain mn
cm
humidity
%
barometer
mb
20260507061516 10 0.0 3.2 0.00 0.61 0.03 93 1005.9
20260507060516 11 0.0 3.2 0.00 0.61 0.03 94 1005.8
20260507055517 11 0.0 0.0 0.00 0.61 0.03 94 1006.1
20260507054517 11 0.0 0.0 0.00 0.61 0.03 94 1006.2
20260507053517 11 315 1.6 8.0 0.00 0.61 0.03 94 1006.5
20260507052538 11 0.0 1.6 0.00 0.61 0.03 94 1006.6
20260507051537 11 0.0 0.0 0.00 0.61 0.03 94 1006.1
20260507050516 11 0.0 0.0 0.00 0.61 0.03 93 1006.6
20260507045537 11 0.0 0.0 0.03 0.61 0.03 93 1006.5
20260507044517 11 0.0 0.0 0.03 0.61 0.03 93 1006.2
20260507043518 11 23 1.6 4.8 0.05 0.61 0.03 93 1006.2
20260507042516 12 0.0 3.2 0.05 0.61 0.03 93 1006.1
20260507041516 12 338 1.6 8.0 0.05 0.61 0.03 92 1006.2
20260507040517 12 293 1.6 11.3 0.05 0.61 0.03 93 1006.1
20260507035517 12 338 4.8 14.5 0.03 0.58 0.58 93 1006.1
20260507034516 13 0 3.2 11.3 0.03 0.58 0.58 93 1006.0
20260507033516 13 293 4.8 16.1 0.00 0.56 0.56 94 1006.0
20260507032516 13 270 3.2 11.3 0.00 0.56 0.56 94 1005.7
20260507031517 14 0 1.6 4.8 0.00 0.56 0.56 95 1005.4
20260507030537 14 0.0 8.0 0.00 0.56 0.56 95 1005.2
20260507025517 14 23 1.6 4.8 0.00 0.56 0.56 95 1004.9
20260507024516 14 203 1.6 6.4 0.00 0.56 0.56 95 1004.9
20260507023537 15 203 3.2 14.5 0.00 0.56 0.56 95 1005.0
20260507022537 15 0.0 3.2 0.00 0.56 0.56 95 1005.1
20260507021517 14 225 4.8 11.3 0.00 0.56 0.56 95 1004.9
20260507020516 14 0.0 3.2 0.00 0.56 0.56 95 1004.7
20260507015517 14 203 1.6 6.4 0.00 0.56 0.56 95 1004.8
20260507014517 14 0.0 4.8 0.00 0.56 0.56 95 1004.7
20260507013516 14 158 1.6 8.0 0.00 0.56 0.56 95 1004.7
20260507012517 14 180 1.6 12.9 0.00 0.56 0.56 95 1004.6
20260507011537 14 203 3.2 8.0 0.03 0.56 0.56 95 1004.7
20260507010516 14 203 3.2 8.0 0.03 0.56 0.56 95 1004.7
20260507005517 14 203 3.2 12.9 0.03 0.56 0.56 95 1004.7
20260507004516 14 203 1.6 4.8 0.03 0.56 0.56 95 1004.8
20260507003517 14 225 1.6 8.0 0.03 0.56 0.56 95 1004.7
20260507002516 14 203 1.6 8.0 0.03 0.56 0.56 95 1004.6
20260507001559 14 0.0 6.4 0.00 0.53 0.53 95 1004.5
20260507000516 14 225 1.6 8.0 0.00 0.53 0.53 95 1004.6
20260506235517 14 203 3.2 6.4 0.03 0.53 0.53 95 1004.5
20260506234516 14 0.0 6.4 0.10 0.53 0.53 95 1004.4
20260506233537 15 203 1.6 6.4 0.10 0.53 0.53 94 1004.4
20260506232516 15 225 1.6 4.8 0.13 0.53 0.53 94 1004.3
20260506231516 15 180 1.6 4.8 0.18 0.53 0.53 94 1004.4
20260506230516 15 225 3.2 8.0 0.20 0.53 0.53 94 1004.3
20260506225537 15 203 1.6 8.0 0.28 0.51 0.51 94 1004.4
20260506224516 15 203 3.2 12.9 0.23 0.43 0.43 94 1004.4
20260506223516 15 203 3.2 8.0 0.23 0.43 0.43 94 1004.6
20260506222516 15 203 3.2 8.0 0.23 0.41 0.41 94 1004.4
20260506221537 15 203 3.2 6.4 0.18 0.36 0.36 93 1004.6
20260506220517 15 203 4.8 11.3 0.15 0.33 0.33 93 1004.8
20260506215516 15 225 3.2 9.7 0.05 0.23 0.23 93 1004.8
20260506214517 15 203 3.2 8.0 0.03 0.20 0.20 92 1004.9
20260506213517 15 225 4.8 16.1 0.03 0.20 0.20 92 1004.9
20260506212516 15 203 3.2 8.0 0.03 0.18 0.18 92 1004.9
20260506211516 15 203 3.2 16.1 0.03 0.18 0.18 92 1005.1
20260506210516 15 203 4.8 11.3 0.05 0.18 0.18 92 1005.1
20260506205517 15 158 1.6 6.4 0.08 0.18 0.18 92 1005.3
20260506204516 15 203 3.2 11.3 0.08 0.18 0.18 91 1005.4
20260506203537 15 180 8.0 20.9 0.08 0.18 0.18 91 1005.4
20260506202517 16 203 4.8 16.1 0.05 0.15 0.15 91 1005.5
20260506201516 16 203 3.2 9.7 0.05 0.15 0.15 90 1005.5
20260506200536 16 225 3.2 12.9 0.05 0.13 0.13 89 1005.3
20260506195516 16 203 6.4 12.9 0.05 0.10 0.10 88 1005.5
20260506194516 16 203 3.2 14.5 0.05 0.10 0.10 88 1005.5
20260506193516 16 180 4.8 14.5 0.08 0.10 0.10 88 1005.5
20260506192517 16 225 4.8 14.5 0.10 0.10 0.10 88 1005.5
20260506191516 16 225 4.8 11.3 0.10 0.10 0.10 86 1005.6
20260506190516 17 180 6.4 17.7 0.08 0.08 0.08 84 1005.5
20260506185517 17 203 1.6 6.4 0.05 0.05 0.05 84 1005.6
20260506184516 18 225 4.8 17.7 0.05 0.05 0.05 79 1005.8
20260506183516 18 203 4.8 11.3 0.03 0.03 0.03 77 1006.0
20260506182517 19 225 4.8 12.9 0.00 0.00 0.00 73 1005.9
20260506181516 20 225 8.0 19.3 0.00 0.00 0.00 69 1006.2
20260506180517 20 225 9.7 22.5 0.00 0.00 0.00 63 1006.0
20260506175517 21 225 12.9 33.8 0.00 0.00 0.00 60 1006.0
20260506174517 21 203 9.7 19.3 0.00 0.00 0.00 58 1006.0
20260506173517 22 203 6.4 16.1 0.00 0.00 0.00 56 1005.9
20260506172537 22 180 8.0 17.7 0.00 0.00 0.00 56 1005.8
20260506171536 22 203 8.0 22.5 0.00 0.00 0.00 55 1005.9
20260506170516 22 225 11.3 24.1 0.00 0.00 0.00 54 1006.0
20260506165517 22 203 8.0 17.7 0.00 0.00 0.00 55 1006.0
20260506164516 22 203 8.0 17.7 0.00 0.00 0.00 58 1006.2
20260506163516 21 203 6.4 17.7 0.00 0.00 0.00 59 1006.4
20260506162517 21 225 8.0 22.5 0.00 0.00 0.00 59 1006.6
20260506161516 21 203 4.8 11.3 0.00 0.00 0.00 59 1006.7
20260506160516 21 203 6.4 20.9 0.00 0.00 0.00 60 1006.9
20260506155516 21 203 6.4 14.5 0.00 0.00 0.00 61 1007.1
20260506154517 21 225 4.8 11.3 0.00 0.00 0.00 63 1007.2
20260506153516 20 180 6.4 25.7 0.00 0.00 0.00 63 1007.3
20260506152517 20 225 6.4 16.1 0.00 0.00 0.00 65 1007.6
20260506151517 20 225 6.4 16.1 0.00 0.00 0.00 65 1007.7
20260506150516 20 203 6.4 17.7 0.00 0.00 0.00 65 1008.0
20260506145517 20 158 4.8 14.5 0.00 0.00 0.00 65 1007.8
20260506144516 20 203 6.4 16.1 0.00 0.00 0.00 66 1008.2
20260506143537 20 203 8.0 19.3 0.00 0.00 0.00 65 1008.0
20260506142516 20 203 8.0 16.1 0.00 0.00 0.00 65 1007.9
20260506141557 20 203 3.2 11.3 0.00 0.00 0.00 66 1007.8
20260506140516 20 203 8.0 25.7 0.00 0.00 0.00 66 1007.7
20260506135516 20 225 8.0 16.1 0.00 0.00 0.00 67 1007.8
20260506134517 20 180 6.4 19.3 0.00 0.00 0.00 67 1007.8
20260506133516 19 225 4.8 11.3 0.00 0.00 0.00 71 1008.0
20260506132516 18 203 6.4 14.5 0.00 0.00 0.00 72 1008.3
20260506131516 18 225 6.4 14.5 0.00 0.00 0.00 73 1008.5
20260506130516 18 225 6.4 16.1 0.00 0.00 0.00 73 1008.6
20260506125516 18 203 6.4 16.1 0.00 0.00 0.00 74 1008.4
20260506124537 17 225 9.7 17.7 0.00 0.00 0.00 74 1008.5
20260506123517 17 203 8.0 17.7 0.00 0.00 0.00 74 1008.4
20260506122557 17 203 6.4 17.7 0.00 0.00 0.00 76 1008.3
20260506121536 17 203 6.4 12.9 0.00 0.00 0.00 76 1008.5
20260506120536 17 203 4.8 14.5 0.00 0.00 0.00 76 1008.5
20260506115516 16 203 8.0 19.3 0.00 0.00 0.00 78 1008.4
20260506114517 16 203 3.2 9.7 0.00 0.00 0.00 79 1008.6
20260506113516 16 203 6.4 16.1 0.00 0.00 0.00 79 1008.7
20260506112537 16 225 4.8 11.3 0.00 0.00 0.00 80 1008.8
20260506111517 15 225 4.8 11.3 0.00 0.00 0.00 80 1009.1
20260506110517 15 180 4.8 11.3 0.00 0.00 0.00 80 1008.8
20260506105516 15 203 4.8 17.7 0.00 0.00 0.00 81 1008.7
20260506104516 15 203 4.8 12.9 0.00 0.00 0.00 82 1008.8
20260506103516 15 225 4.8 17.7 0.00 0.00 0.00 82 1008.9
20260506102516 14 180 4.8 11.3 0.00 0.00 0.00 82 1008.6
20260506101516 14 203 4.8 8.0 0.00 0.00 0.00 82 1008.7
20260506100537 14 180 3.2 6.4 0.00 0.00 0.00 81 1008.7
20260506095516 15 203 3.2 8.0 0.00 0.00 0.00 80 1008.7
20260506094516 15 203 3.2 8.0 0.00 0.00 0.00 80 1008.7
20260506093516 15 203 3.2 6.4 0.00 0.00 0.00 80 1008.6
20260506092516 15 225 4.8 17.7 0.00 0.00 0.00 79 1008.6
20260506091516 15 203 4.8 11.3 0.00 0.00 0.00 79 1008.6
20260506090516 15 203 3.2 8.0 0.00 0.00 0.00 78 1008.6
20260506085517 15 203 4.8 12.9 0.00 0.00 0.00 77 1008.6
20260506084516 15 203 4.8 11.3 0.00 0.00 0.00 77 1008.6
20260506083521 15 203 6.4 14.5 0.00 0.00 0.00 76 1008.7
20260506082516 15 225 6.4 17.7 0.00 0.00 0.00 76 1008.6
20260506081516 16 203 8.0 20.9 0.00 0.00 0.00 75 1008.7
20260506080517 16 203 6.4 17.7 0.00 0.00 0.00 75 1008.6
20260506072517 16 203 4.8 11.3 0.00 0.00 0.00 73 1008.6
20260506071517 16 203 4.8 11.3 0.00 0.00 0.00 72 1008.5
20260506070516 16 225 3.2 8.0 0.00 0.00 0.00 71 1008.4